Terminal Aerodrome Forecast
Issued by NWS

Home | Current Version | Previous Version | Text Only | Print | Product List | Glossary On
Versions: 1 2 3 4 5 6 7 8 9 10 11 12 13 14 15 16 17 18 19 20 21 22 23 24 25 26 27 28 29 30 31 32 33 34 35 36 37 38 39 40 41 42 43 44 45 46 47 48 49 50
000
FTUS44 KHGX 190306 AAC
TAFIAH
TAF AMD
KIAH 190306Z 1903/2006 07008KT P6SM SCT006 OVC010
     FM190600 06006KT 6SM -SHRA BR OVC006
     FM191500 02008KT 3SM -RA OVC009
     FM192000 01010KT P6SM VCSH SCT015 BKN025
     FM200300 36008KT P6SM BKN025 OVC050=

USA.gov is the U.S. government's official web portal to all federal, state and local government web resources and services.